Terminal Aerodrome Forecast
Issued by NWS Tulsa, OK

Home | Current Version | Previous Version | Text Only | Print | Product List | Glossary On
Versions: 1 2 3 4 5 6 7 8 9 10 11 12 13
000
FTUS44 KTSA 291100
TAFTUL
TAF
KTUL 291132Z 2912/3012 31008KT P6SM BKN250
     FM291500 36017G26KT P6SM BKN250
     FM300000 36009KT P6SM SCT250=

USA.gov is the U.S. government's official web portal to all federal, state and local government web resources and services.